Погода в Жезказгане

Хотите узнать прогноз погоды в Жезказгане? Тогда Вам сюда: Погода в Жезказгане

Поиск расширенной информации на нашем сайте:

Полезная информация:

Новости сайта



02.01.2020
Опубликован Долгосрочный прогноз погоды по городам России и ближнего зарубежья на январь 2020 года.
Карты: Прогноз на январь и февраль 2020 года, Сравнение прогнозируемой аномалии приземной температуры воздуха на январь 2020 года по разным моделям.




Погода в Жезказгане - сегодня

Время (UTC), дата Ветер
(°,м/с) 
Видим.   Явления Облачность Т
(°С)
Тd
(°С)
f(%) Тe
(°С)
Pmin
(гПа)
dP
(гПа)
Po
(мм)
O2
(г/м3)
Тmin Tmax R s Состояние
почвы
21 22.09.20 230 (ЮЗ) 20000 м    ясно 
+7.8 +0.6 60 +7  1017.3  732  287           
00 23.09.20 230 (ЮЗ) 20000 м    ясно 
+3.2 -2.4 67 +2  1018.6  0.6  732  292           
03 23.09.20 230 (ЮЗ) 20000 м    5/3 600 м средняя, верхняя 
[Sc|Ac lent|Ci fib]
+5.3 -1.1 63 +5  1018.4  0.1  732  290           
06 23.09.20 240 (ЮЗ) 20000 м    9/5 600 м средняя, верхняя 
[Sc|Ac lent|Ci fib]
+14.6 +0.4 38 +14  1015.7  -1.2  731  280  +2.6         
09 23.09.20 250 (З) 10-15{16}  20000 м  дым  9/6 600 м средняя 
[Sc|Ac lent]
+16 +1.1 36 +15  1012.3  -3.2  729  277           
12 23.09.20 250 (З) 12-16{18}  20000 м    9/6 600 м средняя 
[Sc|Ac lent]
+17.1 +0.7 33 +16  1009.5  -2.5  727  276    +1.9       
15 23.09.20 240 (ЮЗ) 10-15{16}  20000 м    9/6 600 м средняя 
[Sc|Ac lent]
+15.3 +1.6 39 +14  1009.1  -0.6  727  277    +17.4       
18 23.09.20 250 (З) 10-15{16}  20000 м    8/5 600 м средняя 
[Sc|Ac lent]
+14.4 +1.8 42 +13  1007.3  -1.9  725  277    +17.4       
21 23.09.20 260 (З) 8{15}  20000 м    8/5 600 м средняя 
[Sc|Ac lent]
+14.2 +3 47 +13  1008.3  726  278           
00 24.09.20 290 (З) 20000 м    5/3 600 м средняя 
[Sc|Ac lent]
+8 +2.9 70 +6  1012.4  3.1  728  285           
03 24.09.20 300 (СЗ) 20000 м    3/0 средняя 
[Ac lent]
+7.4 +1.6 67 +6  1014.9  2.3  750  294           
06 24.09.20 290 (З) 20000 м    3/0 средняя 
[Ac lent]
+14.4 +0.8 39 +14  1016.2  2.2  732  280  +7.3         
09 24.09.20 280 (З) 20000 м    ясно 
+15.8 -1.4 31 +15  1017  0.9  732  279           
12 24.09.20 290 (З) 20000 м    ясно 
+15.7 -2.8 28 +15  1018.9  1.9  734  280           
15 24.09.20 320 (СЗ) 20000 м    ясно 
+11.3 -1.2 42 +11  1022  2.3  736  285    +16.6       
18 24.09.20 320 (СЗ) 20000 м    ясно 
+2.9 -3.2 64 +2  1024.9  1.5  737  294    +16.6       
21 24.09.20 330 (СЗ) 20000 м    ясно 
+2.7 -3.1 66 +2  1025.6  0.7  737  294           
00 25.09.20 320 (СЗ) 20000 м    ясно 
+1.3 -1.9 79 +1  1026.8  0.9  738  296           
03 25.09.20 340 (С) 20000 м    ясно 
+3.7 -1.5 69 +2  1027.1  0.7  738  294           
06 25.09.20 350 (С) 20000 м    4/4 600 м 
[Sc]
+10.7 +0.2 48 +10  1026.7  0.7  739  286  +1         
09 25.09.20 040 (СВ) 20000 м    3/3 600 м 
[Sc]
+14 -2.9 31 +14  1025.6  -0.7  738  283           
12 25.09.20 040 (СВ) 20000 м    ясно 
+13.7 -5.3 26 +13  1025.7  0.1  738  284           
15 25.09.20 040 (СВ) 20000 м    ясно 
+10.4 -5.6 32 +10  1026.7  0.4  739  287    +14.4       
18 25.09.20 040 (СВ) 20000 м    ясно 
+7.4 -1.9 52 +5  1028  740  290    +14.4       
21 25.09.20 040 (СВ) 20000 м    ясно 
+5.3 -2.1 59 +4  1028.6  0.1  740  293           
Время (UTC), дата Ветер
(°,м/с) 
Видим.   Явления Облачность Т
(°С)
Тd
(°С)
f(%) Тe
(°С)
Pmin
(гПа)
dP
(гПа)
Po
(мм)
O2
(г/м3)
Тmin Tmax R s Состояние
почвы

Для получения пояснительной информации подведите курсор к названию столбца.

ПОГОДА в Жезказгане - архив

Всё, что Вы хотите узнать о погоде в Жезказгане - удобно и подробно!

Выберите нужную дату (начиная с 1 января 2019* года) и нажмите кнопку "Найти".
Будут отображены архивные сводки погоды по пункту Жезказган, начиная с указанной даты.


Отображать данные в формате CSV (для использования в таблицах Excel)


Внимание! Наш архив погоды предназначен исключительно для личного некоммерческого использования в познавательных целях. Если Вам необходимы официальные справки о состоянии погоды (для производственных, юридических, коммерческих и т.п. целей), обращайтесь в органы Росгидромета.

*Примечание: данная дата относится к архиву по метеостанциям СССР (Россия, СНГ, Балтия).
Архив по метеостанциям Зарубежной Европы и Азии (кроме Китая) хранится 10 дней, по другим регионам земного шара (Китай, Африка, Америка, Австралия, Океания) - 1 день.

Жезказган - район местоположения метеостанции


Название, широта, долгота, высота метеостанции:
Жезказган 47.8°ш. 67.7°д. 346 м над ур. моря [Казахстан]

Дополнительная информация

В oтличие oт бoльшинства пoгoдных сайтoв мы публикуем пoдрoбную метеoинфoрмацию в детальнoм прoфессиoнальнoм фoрмате.

Характеристики температуры и влажнoсти вoздуха измеряются на высoте 2 м в тени вдали oт зданий и деревьев.
Скoрoсть ветра измеряется на высoте 10 м (на урoвне рoста челoвека скoрoсть ветра ниже в 1.5-2 раза). Если метеoстанция нахoдится в гoрoде или в лесу, тo скoрoсть ветра занижена на 2-4 м/с пo сравнению с oткрытым местoм. Скoрoсть ветра над акватoриями крупных рек и oзёр, а также на вершинах хoлмoв на 2-5 м/с выше, чем в oбычных услoвиях.
Атмoсфернoе давление в разных тoчках местнoсти мoжет значительнo oтличаться oт давления на метеoстанции, в зависимoсти oт услoвий рельефа (при пoдъёме на 10 м давление пoнижается примернo на 1 мм рт.ст.).